Location: Izdebno
(52.6670°N, 16.2170°E)
Time: 16:01:19
(UTC+01:00)

Vanguard 2 - Pass Details

Date: 07 February 2023
Orbit: 553 x 2927 km, 32.9° (Epoch: 24 March)

Event Time Altitude Azimuth Distance (km) Brightness Sun altitude
Rises 20:51:54 0° 223° (SW) 4,973 11.9 -36.1°
Reaches altitude 10° 20:55:23 10° 213° (SSW) 4,314 11.4 -36.6°
Enters shadow 21:01:07 25° 186° (S) 3,699 10.7 -37.4°
Maximum altitude 21:05:28 30° 159° (SSE) 3,735 - -38.0°
Drops below altitude 10° 21:18:37 10° 108° (ESE) 5,682 - -39.7°
Sets 21:24:05 0° 100° (E) 6,780 - -40.4°
